Regional Weather Roundup
Issued by NWS

Home | Current Version | Previous Version | Graphics & Text | Print | Product List | Glossary On
Versions: 1 2 3 4 5 6 7 8 9 10 11 12 13 14 15 16 17 18 19 20 21 22 23 24 25 26 27 28 29 30 31 32 33 34 35 36 37 38 39 40 41 42 43 44 45 46 47 48 49 50
000
ASUS43 KTOP 262208
RWRKS

WEATHER ROUNDUP FOR KANSAS
NATIONAL WEATHER SERVICE GOODLAND KS
400 PM CST THU FEB 26 2015

NOTE:  "FAIR" INDICATES FEW OR NO CLOUDS BELOW 12,000 FEET WITH NO
SIGNIFICANT WEATHER AND/OR OBSTRUCTIONS TO VISIBILITY.

KSZ001>006-013>018-027>032-041>047-262300-
NORTHWEST KANSAS

CITY           SKY/WX    TMP DP  RH WIND       PRES   REMARKS
GOODLAND       CLOUDY    19   6  57 N6        30.29S
HAYS           SUNNY     23  -6  28 NE17      30.40F WCI   9
HILL CITY      SUNNY     24  -6  26 NE15G22   30.40S WCI  11
RUSSELL        SUNNY     23  -6  28 N15G23    30.41S WCI  10
$$

KSZ061>065-074>080-084>089-262300-
SOUTHWEST KANSAS

CITY           SKY/WX    TMP DP  RH WIND       PRES   REMARKS
DODGE CITY     PTSUNNY   23   2  40 N18       30.35F WCI   9
ELKHART          N/A     20   9  63 E8          N/A
GARDEN CITY    CLOUDY    21   5  50 NE8       30.33S
GREAT BEND     SUNNY     23  -4  30 N15G22    30.42S WCI  10
LIBERAL        PTSUNNY   23   7  50 NE13      30.34S WCI  11
PRATT          MOSUNNY   23  -4  30 N16       30.40F WCI  10
$$

KSZ066>073-081>083-090>101-262300-
SOUTHEAST KANSAS

CITY           SKY/WX    TMP DP  RH WIND       PRES   REMARKS
CHANUTE        SUNNY     26   2  35 N13G21    30.42R WCI  15
COFFEYVILLE    SUNNY     28   2  32 N15       30.42R WCI  16
HUTCHINSON     SUNNY     23  -6  28 N15G23    30.43S WCI  10
MEDICINE LODGE   N/A     26  -3  28 N15G24    30.40F WCI  14
NEWTON         SUNNY     23  -2  33 N18G30    30.42S WCI   9
PARSONS        SUNNY     28   3  34 N15G23    30.42R WCI  16
WICHITA INTL   MOSUNNY   26  -5  25 N17       30.42S WCI  13
WICHITA JABRA  SUNNY     24  -3  30 N21       30.41S WCI   9
WICHITA MCCONL SUNNY     25  -3  29 NE16G22   30.42R WCI  12
WINFIELD       SUNNY     27  -1  30 N20       30.42S WCI  13
$$

KSZ007>012-019>026-033>040-048>060-102>105-262300-
NORTHEAST KANSAS

CITY           SKY/WX    TMP DP  RH WIND       PRES   REMARKS
CONCORDIA      SUNNY     20  -3  36 N16G23    30.46S WCI   6
EMPORIA        SUNNY     22  -1  36 NW16G25   30.42S WCI   8
LAWRENCE       SUNNY     23   1  38 N18G28    30.46R WCI   9
MANHATTAN      SUNNY     21  -2  36 N9        30.48S
MARYSVILLE     MOSUNNY   19   1  45 N12G25    30.48S WCI   7
OLATHE IND     SUNNY     20  -1  40 NW15G25   30.44R WCI   6
OLATHE EXE     SUNNY     21  -1  38 N16       30.41R WCI   7
SALINA         SUNNY     23  -5  29 N21       30.46F WCI   8
TOPEKA BILLARD SUNNY     22   0  38 N14G21    30.47S WCI   9
TOPEKA FORBES  SUNNY     22  -1  36 N15       30.44S WCI   9
$$


USA.gov is the U.S. government's official web portal to all federal, state and local government web resources and services.